Location: Unspecified
(0.0000°N, 0.0000°E)
Time: 13:28:42
(UTC+00:00)

FORMOSAT 3E - Pass Details

Date: 25 May 2026
Orbit: 740 x 833 km, 72.0° (Epoch: 5 June)

Event Time Altitude Azimuth Distance (km) Brightness Sun altitude
Rises 18:35:46 0° 352° (N) 3,166 11.6 -9.0°
Reaches altitude 10° 18:38:08 10° 355° (N) 2,252 10.8 -9.6°
Maximum altitude 18:43:11 63° 76° (ENE) 838 8.0 -10.8°
Drops below altitude 10° 18:48:21 10° 157° (SSE) 2,308 10.1 -12.0°
Enters shadow 18:49:32 - 158° (SSE) 2,766 10.5 -12.2°
